Regional Weather Roundup
Issued by NWS

Home | Current Version | Previous Version | Graphics & Text | Print | Product List | Glossary On
Versions: 1 2 3 4 5 6 7 8 9 10 11 12 13 14 15 16 17 18 19 20 21 22 23 24 25 26 27 28 29 30 31 32 33 34 35 36 37 38 39 40 41 42 43 44 45 46 47 48 49 50
126
ASUS43 KOAX 221602
RWRNE

WEATHER ROUNDUP FOR NEBRASKA
NATIONAL WEATHER SERVICE OMAHA NE
1000 AM CST THU FEB 22 2018

NOTES: SATELLITE DATA IS BEING USED TO AUGMENT CLOUD COVER ABOVE
       12000 FEET.
       "FAIR" INDICATES FEW OR NO CLOUDS BELOW 12,000 FEET WITH NO
       SIGNIFICANT WEATHER AND/OR OBSTRUCTIONS TO VISIBILITY.


NEZ001>004-019>022-054>056-221700-
NEBRASKA PANHANDLE

CITY           SKY/WX    TMP DP  RH WIND       PRES   REMARKS
SCOTTSBLUFF    CLOUDY    16  12  84 SE3       30.10S
ALLIANCE       CLOUDY    17  14  88 S16       30.10F WCI   2
CHADRON        SUNNY     11   5  77 CALM      30.13S
GORDON         LGT SNOW  15  10  82 S5        30.14S WCI   7
KIMBALL        LGT SNOW  17  12  82 S10       30.03F WCI   4
SIDNEY         CLOUDY    20   9  62 S13       30.08F WCI   7
$$

NEZ057>060-069>072-079>082-221700-
SOUTHWEST NEBRASKA

CITY           SKY/WX    TMP DP  RH WIND       PRES   REMARKS
NORTH PLATTE   LGT SNOW  20  15  81 S7        30.25S WCI  11
IMPERIAL       CLOUDY    21  11  65 SE10      30.18F WCI  10
LEXINGTON      CLOUDY    23  19  84 SE9       30.28F WCI  13
MCCOOK         CLOUDY    22  16  78 SE7       30.24F WCI  13
OGALLALA       CLOUDY    21  16  79 S8        30.19F WCI  12
$$

NEZ005>010-023>029-035>040-094-221700-
NORTH CENTRAL NEBRASKA

CITY           SKY/WX    TMP DP  RH WIND       PRES   REMARKS
VALENTINE      LGT SNOW  22  17  81 S8        30.25S WCI  12
AINSWORTH      LGT SNOW  20  19  93 S10       30.27R WCI   9
BROKEN BOW     LGT SNOW  21  17  84 SE7       30.26F FOG     WCI  12
O`NEILL        CLOUDY    21  19  93 SE5       30.32S WCI  15
ORD            LGT SNOW  21  19  92 S6        30.30F FOG     WCI  13
THEDFORD       CLOUDY    20  18  89 S5        30.24F WCI  14
$$

NEZ041-046>049-061>064-073>077-083>087-221700-
SOUTH CENTRAL NEBRASKA

CITY           SKY/WX    TMP DP  RH WIND       PRES   REMARKS
GRAND ISLAND   CLOUDY    21  18  88 SE12      30.34F WCI   9
AURORA         CLOUDY    22  19  90 SE9       30.36R WCI  11
HASTINGS       CLOUDY    21  18  88 SE8       30.33S WCI  11
HEBRON         CLOUDY    24  22  90 SE3       30.37S FOG
HOLDREGE       CLOUDY    22  20  93 SE7       30.28F FOG     WCI  13
KEARNEY        FLURRIES  21  18  88 SE13      30.32S WCI   9
YORK           MOSUNNY   23  23 100 SE8       30.37S WCI  14
$$

NEZ011>018-030>034-042>045-221700-
NORTHEAST NEBRASKA

CITY           SKY/WX    TMP DP  RH WIND       PRES   REMARKS
NORFOLK        CLOUDY    23  19  85 SE10      30.37R WCI  12
ALBION         CLOUDY    23  19  86 SE10      30.35S WCI  12
BLAIR          CLOUDY    26  22  87 E12       30.37S WCI  15
COLUMBUS       CLOUDY    22  19  89 E8        30.39R WCI  12
FREMONT        CLOUDY    24  21  88 E8        30.39R WCI  15
TEKAMAH        CLOUDY    25  20  81 E9        30.40F WCI  15
WAYNE          CLOUDY    24  21  91 E10       30.38S WCI  13
$$

NEZ050>053-065>068-078-088>093-221700-
SOUTHEAST NEBRASKA

CITY           SKY/WX    TMP DP  RH WIND       PRES   REMARKS
LINCOLN        CLOUDY    25  20  81 E7        30.40R WCI  17
OMAHA EPPLEY   FLURRIES  26  21  81 SE10      30.42R WCI  16
BEATRICE       CLOUDY    27  25  95 SE5       30.38S FOG     WCI  21
FALLS CITY     CLOUDY    28  26  92 E7        30.39R FOG     WCI  21
NEBRASKA CITY  MIX PCPN  28  28 100 SE6       30.40R WCI  21
PLATTSMOUTH    MIX PCPN  26  23  89 E10       30.39R WCI  16
$$

NEZ044-045-051>053-067-221700-
OMAHA AREA

CITY           SKY/WX    TMP DP  RH WIND       PRES   REMARKS
OMAHA EPPLEY   FLURRIES  26  21  81 SE10      30.42R WCI  16
BLAIR          CLOUDY    26  22  87 E12       30.37S WCI  15
FREMONT        CLOUDY    24  21  88 E8        30.39R WCI  15
MILLARD        CLOUDY    27  22  82 E8        30.40R WCI  19
OFFUTT AFB     CLOUDY    26  21  82 E12       30.40R WCI  16
PLATTSMOUTH    MIX PCPN  26  23  89 E10       30.39R WCI  16
WAHOO          CLOUDY    25  22  87 SE7       30.39R WCI  17
$$




USA.gov is the U.S. government's official web portal to all federal, state and local government web resources and services.